Regional Weather Roundup
Issued by NWS

Home | Current Version | Previous Version | Graphics & Text | Print | Product List | Glossary Off
Versions: 1 2 3 4 5 6 7 8 9 10 11 12 13 14 15 16 17 18 19 20 21 22 23 24 25 26 27 28 29 30 31 32 33 34 35 36 37 38 39 40 41 42 43 44 45 46 47 48 49 50

000
ASUS43 KDMX 240901
RWRIA

WEATHER ROUNDUP FOR IOWA
NATIONAL WEATHER SERVICE DES MOINES IA
300 AM CST TUE JAN 24 2017

NOTE: "FAIR" INDICATES FEW OR NO CLOUDS BELOW 12,000 FEET WITH NO
SIGNIFICANT WEATHER AND/OR OBSTRUCTIONS TO VISIBILITY.

* - THESE STATIONS ARE NOT NWS STATIONS...THUS NOT UNDER NWS
QUALITY CONTROL.  THEY ALSO DO NOT REPORT WEATHER SUCH
AS PRECIPITATION OR FOG.

IAZ001>003-012>014-020>022-031>034-043>046-241000-
   NORTHWEST IOWA

CITY           SKY/WX    TMP DP  RH WIND       PRES   REMARKS
CARROLL *      CLOUDY    32  32 100 SE8       29.83S WCI  25
CHEROKEE *     CLOUDY    31  30  96 SE8       29.83R WCI  24
DENISON *      CLOUDY    30  28  93 SE8       29.81R WCI  23
LE MARS *      CLOUDY    32  30  93 SE10      29.82R WCI  24
ORANGE CITY *  CLOUDY    30  30 100 SE5       29.80S WCI  25
SHELDON *      CLOUDY    32  32 100 SE7       29.80S WCI  26
SIOUX CITY     CLOUDY    32  29  88 SE12      29.81R WCI  23
SPENCER        CLOUDY    32  30  92 SE7       29.83R WCI  26
STORM LAKE *   CLOUDY    30  28  93 E8        29.82R WCI  23
$$

IAZ055>058-069>071-079>083-090>094-241000-
   SOUTHWEST IOWA

CITY           SKY/WX    TMP DP  RH WIND       PRES   REMARKS
ATLANTIC *     CLOUDY    30  30 100 E9        29.83S WCI  22
AUDUBON *      CLOUDY    30  27  86 E9        29.83F WCI  22
CLARINDA *     CLOUDY    30  30 100 E8        29.84F FOG     WCI  23
COUNCIL BLFS * CLOUDY    30  30 100 E10       29.80S FOG     WCI  21
CRESTON *      CLOUDY    28  30 100 E9        29.84F WCI  20
HARLAN  *      CLOUDY    30  30 100 E9        29.85F WCI  22
LAMONI         CLOUDY    30  28  92 E5        29.84S WCI  25
RED OAK *      CLOUDY    30  30 100 E12       29.82F FOG     WCI  21
SHENANDOAH *   CLOUDY    30  30 100 E10       29.82S FOG     WCI  21
$$

IAZ047>049-059>061-072>074-084-241000-
   CENTRAL IOWA

CITY           SKY/WX    TMP DP  RH WIND       PRES   REMARKS
AMES           CLOUDY    32  32 100 S3        29.86R
ANKENY *       CLOUDY    32  28  86 SE5       29.88R WCI  27
BOONE *        CLOUDY    32  32 100 CALM      29.84R
CHARITON *     CLOUDY    30  30 100 E5        29.86S FOG     WCI  25
DES MOINES     CLOUDY    32  27  81 SE5       29.87R WCI  27
GRINNELL*      CLOUDY    32  30  91 CALM      29.87R
KNOXVILLE *    CLOUDY    32  28  86 E3        29.86S
MARSHALLTOWN   CLOUDY    32  30  92 CALM      29.85R
NEWTON *       CLOUDY    32  30  93 CALM      29.86R
PELLA *        CLOUDY    32  29  88 NE3       29.89S
PERRY *        CLOUDY    32  29  90 SE6       29.86R WCI  27
$$

IAZ004>006-015-016-023>025-035-036-241000-
   NORTH CENTRAL IOWA

CITY           SKY/WX    TMP DP  RH WIND       PRES   REMARKS
ALGONA *       CLOUDY    32  32 100 SE3       29.85R
CLARION *      CLOUDY    32  32 100 CALM      29.85S
ESTHERVILLE    CLOUDY    30  30 100 SE3       29.83S
FORT DODGE *   CLOUDY    30  27  86 E5        29.84S WCI  25
MASON CITY     CLOUDY    31  28  89 CALM      29.86S
FOREST CITY *  CLOUDY    32  32 100 CALM      29.85S
WEBSTER CITY * CLOUDY    32 N/A N/A NE8       29.82F WCI  25
IOWA FALLS *   CLOUDY    33  30  88 CALM      29.86S
$$

IAZ007>011-017>019-026>030-037>042-050>054-066-241000-
   NORTHEAST IOWA

CITY           SKY/WX    TMP DP  RH WIND       PRES   REMARKS
CEDAR RAPIDS   CLOUDY    32  27  81 NW5       29.86R WCI  27
CHARLES CITY * CLOUDY    32  32 100 CALM      29.85F
CLINTON *      CLOUDY    33  31  92 NW5       29.87S WCI  29
DECORAH *      CLOUDY    32  30  93 CALM      29.84S
DUBUQUE        CLOUDY    32  30  92 CALM      29.85S
MONTICELLO *   CLOUDY    32  30  93 CALM      29.86S
OELWEIN *      CLOUDY    32  32 100 CALM      29.86R
WATERLOO       CLOUDY    32  28  85 N5        29.86R WCI  27
$$

IAZ064-065-067-068-078-241000-
   EAST CENTRAL IOWA

CITY           SKY/WX    TMP DP  RH WIND       PRES   REMARKS
DAVENPORT      CLOUDY    33  30  88 W6        29.87S WCI  28
IOWA CITY      CLOUDY    34  28  79 CALM      29.89R
MUSCATINE *    CLOUDY    34  30  86 CALM      29.89R
QUAD CITIES    CLOUDY    35  31  85 CALM      29.86F
$$

IAZ062-063-075>077-085>089-095>099-241000-
   SOUTHEAST IOWA

CITY           SKY/WX    TMP DP  RH WIND       PRES   REMARKS
BURLINGTON     CLOUDY    33  30  88 CALM      29.88R
FAIRFIELD *    CLOUDY    32  28  86 CALM      29.88S
FORT MADISON * CLOUDY    34  30  86 CALM      29.89S
KEOKUK *       CLOUDY    34 N/A N/A CALM      29.89R
OSKALOOSA *    CLOUDY    31  29  90 CALM      29.88S
CENTERVILLE *  CLOUDY    30  30 100 CALM      29.89R
OTTUMWA        CLOUDY    32  27  81 N3        29.88R
WASHINGTON *   CLOUDY    32  30  93 CALM      29.90R
$$

ABBREVIATIONS USED IN REMARKS
   TC - TEMPERATURES IN CELSIUS
  WCI - WIND CHILL INDEX
   HX - HEAT INDEX
  VSB - VISIBILITY
$$




USA.gov is the U.S. government's official web portal to all federal, state and local government web resources and services.